Simultaneous Nadir Overpasses (SNOs) Predictions

Prediction of SNOs between TERRA and METOP-C Satellite Orbit:

Table of predicted SNOs for the next 14.0 days since TLE Epoch: 6/8/2024
Index Date (TERRA) Time (TERRA) Lat,Lon (TERRA) SZA (TERRA ) Date (METOP-C) Time (METOP-C) Lat,Lon (METOP-C) SZA (METOP-C ) Distance(km) Time Diff (sec)
1 06/09/2024 10:05:19 70.21, 18.55 47.48 06/09/2024 10:04:06 70.47, 16.97 47.88 65.33 73
2 06/09/2024 10:52:13 -77.86,-155.36 125.08 06/09/2024 10:52:14 -77.86,-155.34 125.07 0.59 1
3 06/12/2024 01:22:59 -77.59, -14.20 125.57 06/12/2024 01:22:38 -77.59, -14.24 125.57 1.02 21
4 06/12/2024 02:12:06 78.16, 155.92 55.08 06/12/2024 02:13:04 78.17, 156.01 55.10 2.22 58
5 06/14/2024 15:53:43 -77.41, 127.40 125.90 06/14/2024 15:53:00 -77.42, 127.43 125.89 1.14 43
6 06/14/2024 16:42:53 77.85, -63.16 54.59 06/14/2024 16:43:30 77.84, -63.26 54.58 2.60 37
7 06/17/2024 06:24:27 -77.19, -91.14 126.23 06/17/2024 06:23:23 -77.20, -91.12 126.23 0.66 64
8 06/17/2024 07:13:34 77.77, 78.79 54.40 06/17/2024 07:13:49 77.78, 78.89 54.42 2.61 15
9 06/19/2024 21:44:19 77.46,-140.15 54.02 06/19/2024 21:44:14 77.46,-140.20 54.02 1.29 5



Historial Predications of SNOs between TERRA and METOP-C
